Dewpoint
47 47 46 44 44 42 41 40 38 35 35 36 35 36 38 38 40 40 40 46 46 44 43 47 46 47 49 50 50 51 53 55 56 58 60 61 63 63
45 45 45 44 43 43 43 41 40 38 35 36 35 36 39 36 37 40 41 44 45 43 43 45 45 45 47 48 48 49 49 50 52 54 56 58 59 61
45 45 44 44 43 42 42 41 40 39 35 35 38 37 38 39 37 39 42 41 43 43 42 44 43 43 44 46 46 46 47 47 48 49 51 53 55 58
41 43 42 41 42 43 43 41 40 39 37 35 36 37 37 38 38 38 35 34 38 41 41 44 43 42 43 44 44 44 44 44 45 46 48 49 50 51
37 38 38 38 41 43 43 43 41 38 38 36 35 36 37 37 36 37 37 40 38 41 41 43 43 43 43 44 42 43 43 42 41 42 42 43 46 48
33 34 34 35 35 36 36 40 41 41 40 38 36 35 36 36 38 36 35 38 38 34 38 38 42 42 43 44 41 42 42 41 41 40 41 40 41 43
29 29 30 32 35 35 33 34 37 40 40 38 36 36 35 35 34 35 36 36 36 36 36 39 39 39 42 44 42 40 41 40 40 39 38 39 40 41
28 29 30 33 33 34 34 35 36 36 37 39 36 34 33 34 35 34 34 33 32 37 37 36 37 37 39 44 40 39 40 39 38 38 37 38 38 40
29 29 29 27 32 32 34 34 34 36 34 38 38 35 33 33 34 34 33 34 32 34 35 33 37 36 40 39 40 38 38 39 38 37 37 37 37 38
31 29 29 29 30 33 33 33 33 33 35 37 35 36 32 34 33 33 34 34 33 33 33 31 36 35 38 39 39 38 37 38 37 37 37 37 37 38
29 30 29 28 30 32 30 30 30 32 33 36 38 37 34 33 34 34 31 31 29 30 35 36 34 33 33 36 39 39 38 38 38 37 37 37 38 38
27 26 28 30 30 30 30 30 29 30 32 34 38 36 33 31 31 31 31 28 29 29 36 33 32 31 29 34 38 36 37 37 37 37 38 38 38 38
24 26 27 29 31 33 32 30 29 31 31 34 37 37 33 32 30 29 28 27 28 30 36 35 32 31 30 30 32 34 35 36 35 36 38 36 37 37
24 25 26 28 30 34 33 31 32 32 31 33 36 35 32 32 31 30 29 29 32 31 35 36 33 32 30 27 30 31 33 35 34 34 35 36 36 34
25 25 26 27 29 30 31 32 32 32 32 32 34 35 35 34 34 35 34 33 34 35 33 33 33 32 31 30 29 30 29 31 34 33 34 34 32 32
24 23 23 25 27 31 32 34 33 32 32 33 32 34 35 34 34 35 33 34 33 32 34 33 33 32 31 32 31 29 31 29 31 32 34 33 32 32
23 22 23 25 28 31 31 32 33 32 32 32 32 33 34 32 33 34 33 31 30 30 31 34 34 33 33 31 29 30 30 30 31 32 30 29 32 31
21 22 25 28 28 29 31 30 32 32 32 32 32 32 32 32 32 32 32 30 30 30 30 30 30 30 31 31 33 29 29 29 30 31 31 28 29 31
20 23 24 25 25 26 27 28 29 32 31 32 32 32 32 31 31 30 31 30 29 28 27 28 27 27 26 25 29 32 28 29 29 29 31 30 29 29
20 21 22 23 25 28 29 28 28 29 29 30 31 31 29 29 29 30 31 29 28 28 28 28 28 28 27 27 25 28 32 29 28 27 27 28 29 31
19 20 22 23 22 23 25 25 26 26 26 26 27 27 26 28 26 27 28 26 26 27 26 26 28 28 30 29 21 21 26 32 31 29 27 24 24 25
20 21 21 21 23 24 25 25 25 25 26 25 26 28 26 27 25 25 24 23 24 25 25 27 28 28 27 26 24 19 23 23 30 32 31 30 27 25
20 19 20 22 22 22 22 23 23 25 25 24 23 24 21 22 26 25 24 24 24 22 23 24 26 27 25 26 23 23 20 19 22 25 26 31 31 31
Lifted_Index
7 7 7 8 8 9 9 9 10 10 10 10 10 10 10 10 10 10 10 10 10 10 11 12 11 9 6 4 3 2 1 1 1 1 0 -0 -1 -1
7 7 7 8 8 8 9 9 9 10 10 10 10 10 10 10 11 10 10 10 10 10 11 12 12 11 8 6 5 4 3 2 2 2 1 1 0 -0
7 7 7 7 7 8 8 9 9 9 10 10 10 10 10 10 11 11 10 10 10 11 11 12 12 12 11 9 8 6 5 4 3 3 3 2 2 1
8 8 7 7 7 7 8 8 8 9 10 10 10 10 11 11 11 11 11 11 11 11 11 12 12 12 12 11 10 8 7 5 4 4 4 3 2 2
10 10 9 8 8 8 8 8 8 8 9 10 10 11 11 11 11 11 11 11 11 11 12 12 12 12 12 12 12 11 9 8 6 5 4 4 3 3
13 13 12 11 10 10 9 9 8 8 8 9 10 10 11 10 11 11 11 11 11 11 12 12 12 11 12 12 12 12 11 11 9 7 6 6 5 5
15 15 15 14 13 12 12 11 10 9 9 9 9 10 10 10 10 11 11 12 12 12 12 12 11 11 11 11 11 11 12 13 12 11 9 8 7 7
16 16 16 16 15 14 14 13 12 11 10 9 9 9 10 10 11 11 11 12 12 12 12 12 11 11 12 11 11 11 12 14 14 13 12 11 10 9
16 16 16 16 16 15 15 14 14 13 12 10 10 9 9 10 11 11 12 12 12 13 13 13 12 12 12 11 12 12 13 15 15 15 14 13 11 11
17 17 16 16 16 16 16 16 15 14 13 11 10 9 9 9 10 11 12 12 12 13 13 13 13 12 12 12 12 13 14 15 16 16 15 14 13 13
16 16 15 15 15 14 15 15 15 14 13 12 10 9 8 9 10 11 12 12 13 13 13 12 12 12 12 12 13 13 14 15 15 15 16 15 15 15
13 13 12 12 11 11 11 12 12 12 12 11 10 8 8 8 10 11 11 12 13 12 11 11 11 12 12 12 12 13 13 14 14 15 15 15 16 16
11 10 10 9 8 7 7 8 8 9 9 9 8 7 7 7 8 9 10 11 12 11 10 10 10 11 12 12 12 12 13 13 13 14 14 15 16 16
9 9 8 7 6 5 5 5 5 6 6 6 5 5 5 5 5 6 7 8 9 9 8 8 9 9 10 10 10 11 11 11 12 13 13 14 15 15
7 7 7 6 5 4 3 3 3 4 4 4 3 3 3 3 4 4 5 5 6 6 6 7 7 7 8 8 8 8 9 9 9 10 11 12 13 13
6 6 6 5 3 3 2 2 2 3 3 3 2 2 3 3 3 4 4 4 4 5 5 5 6 6 6 6 6 6 7 7 7 7 8 9 10 11
6 6 5 4 3 2 2 2 2 3 3 3 3 3 3 3 4 4 4 4 5 5 5 5 6 6 6 6 6 6 6 6 6 7 7 8 8 8
6 5 4 3 3 3 3 3 3 3 3 3 3 3 3 3 4 4 5 5 5 6 6 6 6 6 6 6 6 6 6 6 6 7 7 7 7 8
6 5 5 4 4 3 3 4 4 4 4 4 4 3 3 4 4 4 5 6 6 6 7 7 7 7 7 6 6 6 6 6 6 7 7 7 7 8
6 6 6 5 5 4 4 4 5 5 5 5 5 5 5 5 5 5 6 6 6 7 7 7 8 7 7 7 7 7 6 7 7 7 7 7 8 8
7 7 6 6 6 6 6 5 6 6 6 6 6 6 6 6 6 6 6 6 7 7 7 7 7 7 7 7 7 7 7 8 8 8 8 8 8 8
8 8 8 7 7 7 7 7 7 7 7 7 7 7 7 6 6 7 7 7 7 7 7 7 7 8 8 8 8 8 9 9 9 9 9 9 8 8
9 9 9 8 8 8 8 8 7 7 7 7 7 7 7 7 7 7 7 7 7 7 8 8 8 8 8 8 8 9 9 9 9 9 9 9 9 8